Participated 1 time
in 1908
Louis Bertuanza, Italy
Tour de France 2026 starts from Edinburgh, Scotland in

Stats and Facts from
Tour de France.

2026   2025   2024   2023  2022  2021  2020  2019   2018  2017   2016   2015  2014  2013   2012   2011  2010   2009   2008   2007   2006   2005   2004   2003   2002   2001   2000   1999   1998   1997  1996   1995   1994   1993   1992  1991   1990   1989   1988   1987   1986   1985   1984   1983  1982  1981   1980   1979  1978  1977   1976  1975  1974  1973   1972   1971   1970  1969   1968   1967   1966   1965  1964  1963   1962   1961   1960   1959   1958   1957  1956   1955   1954   1953   1952  1951  1950  1949   1948  1947  1939   1938   1937   1936   1935   1934   1933  1932   1931   1930  1929   1928   1927   1926  1925  1924  1923   1922   1921   1920   1919  1914   1913   1912   1911   1910  1909   1908   1907   1906  1905  1904   1903 

Tourstats
Sitemap

After stage 21 - 2026:
 16451 starters.
  5513 different riders.
  689 teams.
  2419 stages.
  470 restdays.
  469752.50 km.
  5946 abandoned riders.

Click map for 2003 route.
Facts from Tour de France 2003
  |   Stages.  |   Stage winners.  |   Days in jerseys.  |   Teams.  |   All riders.  |   All riders by age.  |   All riders from.  |  

  |   Rookies.  |   Withdrawls.  |   Average speed.  |   GC.  |   Polka  |   Green  |   White  |   Summits. (In tour)  |   Miscellaneous.  |  

Stage 12 on July 18th. 2003
Pick a stage:  Pro  1  2  3  4  5  6  7  8  9  10  11  12  13  14  15  16  17  18  19  20  

After stage 12:    Lance Armstrong  
  GaillacCap-Découverte | Dist: 47.00km. | Winner: Jan Ullrich

Podium

Average speed for all riders in stage:  42,029 km./hr.

1
 Jan Ullrich  Bianchi00h 58' 32"=48,178  km/h

2
 Lance Armstrong  US Postal-Berry Floor01h 00' 08"+  00:01:36 =46,896  km/h

3
 Alexandre Vinokourov  Telekom01h 00' 38"+  00:02:06 =46,509  km/h

4  Haimar  Zubeldía  Euskaltel-Euskadi01h 01' 12"+  00:02:40 =46,078  km/h

5  Tyler Hamilton  CSC01h 01' 15"+  00:02:43 =46,041  km/h

6  Uwe Peschel  Gerolsteiner01h 01' 58"+  00:03:26 =45,508  km/h

7  David Millar  Cofidis Credit Par Telephone01h 02' 27"+  00:03:55 =45,156  km/h

8  Iñigo Chaurreau  AG2R-Decathlon01h 02' 33"+  00:04:01 =45,084  km/h

9  David Plaza  Bianchi01h 03' 09"+  00:04:37 =44,656  km/h

10  Santiago Botero  Telekom01h 03' 32"+  00:05:00 =44,386  km/h

11  Francisco Mancebo  ibanesto.com01h 03' 32"+  00:05:00 =44,386  km/h

12  Iban Mayo  Euskaltel-Euskadi01h 03' 35"+  00:05:03 =44,351  km/h

13  Georg Totschnig  Gerolsteiner01h 03' 38"+  00:05:06 =44,316  km/h

14  Denis Menchov  ibanesto.com01h 03' 47"+  00:05:15 =44,212  km/h

15  László Bodrogi  Quick Step-Davitamon01h 03' 57"+  00:05:25 =44,097  km/h

16  Christophe Moreau  Credit Agricole01h 03' 59"+  00:05:27 =44,074  km/h

17  José Azevedo  O.N.C.E.-Eroski01h 04' 04"+  00:05:32 =44,017  km/h

18  Carlos Sastre  CSC01h 04' 24"+  00:05:52 =43,789  km/h

19  Massimiliano Lelli  Cofidis Credit Par Telephone01h 04' 31"+  00:05:59 =43,710  km/h

20  Ivan Basso  Fassa Bortolo01h 04' 32"+  00:06:00 =43,698  km/h

21  Paolo Bettini  Quick Step-Davitamon01h 04' 32"+  00:06:00 =43,698  km/h

22  Michael Rogers  Quick Step-Davitamon01h 04' 38"+  00:06:06 =43,631  km/h

23  George Hincapie  US Postal-Berry Floor01h 04' 43"+  00:06:11 =43,575  km/h

24  Iván Parra  Kelme-Costa Blanca01h 04' 44"+  00:06:12 =43,563  km/h

25  Victor Hugo Peña  US Postal-Berry Floor01h 04' 44"+  00:06:12 =43,563  km/h

26  Peter Luttenberger  CSC01h 04' 47"+  00:06:15 =43,530  km/h

27  Manuel Beltran  US Postal-Berry Floor01h 04' 47"+  00:06:15 =43,530  km/h

28  Grischa Niermann  Rabobank01h 04' 51"+  00:06:19 =43,485  km/h

29  Marc Wauters  Rabobank01h 04' 52"+  00:06:20 =43,474  km/h

30  Didier Rous  Brioches La Boulangere01h 04' 59"+  00:06:27 =43,396  km/h

31  Jörg Jaksche  O.N.C.E.-Eroski01h 05' 11"+  00:06:39 =43,263  km/h

32  Yuriy Krivtsov  Jean Delatour01h 05' 11"+  00:06:39 =43,263  km/h

33  Thor Hushovd  Credit Agricole01h 05' 18"+  00:06:46 =43,185  km/h

34  Laurent Lefèvre  Jean Delatour01h 05' 22"+  00:06:50 =43,141  km/h

35  Evgueni Petrov  ibanesto.com01h 05' 23"+  00:06:51 =43,130  km/h

36  Vladimir Karpets  ibanesto.com01h 05' 30"+  00:06:58 =43,053  km/h

37  José-Luis Rubiera  US Postal-Berry Floor01h 05' 35"+  00:07:03 =42,999  km/h

38  Thomas Liese  Bianchi01h 05' 37"+  00:07:05 =42,977  km/h

39  Philippe Gaumont  Cofidis Credit Par Telephone01h 05' 39"+  00:07:07 =42,955  km/h

40  Torsten Schmidt  Gerolsteiner01h 05' 45"+  00:07:13 =42,890  km/h

41  Nicolas Fritsch  fdjeux.com01h 05' 45"+  00:07:13 =42,890  km/h

42  Gerrit Glomser  Saeco Macchine Da Caffe-Cannondale01h 05' 45"+  00:07:13 =42,890  km/h

43  Roberto Laiseka  Euskaltel-Euskadi01h 05' 48"+  00:07:16 =42,857  km/h

44  Servais Knaven  Quick Step-Davitamon01h 05' 54"+  00:07:22 =42,792  km/h

45  Richard Virenque  Quick Step-Davitamon01h 05' 56"+  00:07:24 =42,770  km/h

46  Kurt Van De Wouwer  Quick Step-Davitamon01h 05' 58"+  00:07:26 =42,749  km/h

47  Roberto Heras  US Postal-Berry Floor01h 06' 04"+  00:07:32 =42,684  km/h

48  Laurent Brochard  AG2R-Decathlon01h 06' 07"+  00:07:35 =42,652  km/h

49  Axel Merckx  Lotto-Domo01h 06' 14"+  00:07:42 =42,577  km/h

50  Vladimir Miholjević  Alessio01h 06' 15"+  00:07:43 =42,566  km/h

51  Marzio Bruseghin  Fassa Bortolo01h 06' 16"+  00:07:44 =42,555  km/h

52  David Cañada  Quick Step-Davitamon01h 06' 22"+  00:07:50 =42,491  km/h

53  Romāns Vainšteins  Vini Caldirola-Saunier Duval01h 06' 26"+  00:07:54 =42,449  km/h

54  Felix Garcia Casas  Bianchi01h 06' 29"+  00:07:57 =42,417  km/h

55  Óscar Freire  Rabobank01h 06' 30"+  00:07:58 =42,406  km/h

56  José Enrique Gutierrez  Kelme-Costa Blanca01h 06' 33"+  00:08:01 =42,374  km/h

57  Nicolas Vogondy  fdjeux.com01h 06' 33"+  00:08:01 =42,374  km/h

58  Javier Rodriguez  Kelme-Costa Blanca01h 06' 44"+  00:08:12 =42,258  km/h

59  Laurent Dufaux  Alessio01h 06' 45"+  00:08:13 =42,247  km/h

60  Davide Rebellin  Gerolsteiner01h 06' 45"+  00:08:13 =42,247  km/h

61  Alexandre Botcharov  AG2R-Decathlon01h 06' 47"+  00:08:15 =42,226  km/h

62  Carlos Da Cruz  fdjeux.com01h 06' 48"+  00:08:16 =42,216  km/h

63  David Latasa  Kelme-Costa Blanca01h 06' 50"+  00:08:18 =42,195  km/h

64  Mikel Pradera  O.N.C.E.-Eroski01h 06' 51"+  00:08:19 =42,184  km/h

65  Michael Blaudzun  CSC01h 06' 55"+  00:08:23 =42,142  km/h

66  Bekim Leif Christensen  CSC01h 06' 58"+  00:08:26 =42,111  km/h

67  Álvaro Gonzalez De Galdeano  O.N.C.E.-Eroski01h 06' 59"+  00:08:27 =42,100  km/h

68  Michael Boogerd  Rabobank01h 07' 00"+  00:08:28 =42,090  km/h

69  Fabio Sacchi  Saeco Macchine Da Caffe-Cannondale01h 07' 00"+  00:08:28 =42,090  km/h

70  Floyd Landis  US Postal-Berry Floor01h 07' 04"+  00:08:32 =42,048  km/h

71  Maryan Hary  Brioches La Boulangere01h 07' 06"+  00:08:34 =42,027  km/h

72  Viatcheslav Ekimov  US Postal-Berry Floor01h 07' 08"+  00:08:36 =42,006  km/h

73  Nicolas Portal  AG2R-Decathlon01h 07' 08"+  00:08:36 =42,006  km/h

74  Andrea Peron  CSC01h 07' 09"+  00:08:37 =41,996  km/h

75  Walter Bénéteau  Brioches La Boulangere01h 07' 12"+  00:08:40 =41,964  km/h

76  Iñigo Landaluze  Euskaltel-Euskadi01h 07' 12"+  00:08:40 =41,964  km/h

77  Benoît Poilvet  Credit Agricole01h 07' 14"+  00:08:42 =41,943  km/h

78  Andy Flickinger  AG2R-Decathlon01h 07' 15"+  00:08:43 =41,933  km/h

79  Serge Baguet  Lotto-Domo01h 07' 15"+  00:08:43 =41,933  km/h

80  Pietro Caucchioli  Alessio01h 07' 17"+  00:08:45 =41,912  km/h

81  Nicolas Jalabert  CSC01h 07' 21"+  00:08:49 =41,871  km/h

82  Steve Zampieri  Vini Caldirola-Saunier Duval01h 07' 22"+  00:08:50 =41,860  km/h

83  Remmert Wielinga  Rabobank01h 07' 22"+  00:08:50 =41,860  km/h

84  Udo Bölts  Gerolsteiner01h 07' 27"+  00:08:55 =41,809  km/h

85  Juan Miguel Mercado  ibanesto.com01h 07' 28"+  00:08:56 =41,798  km/h

86  Rik Verbrugghe  Lotto-Domo01h 07' 28"+  00:08:56 =41,798  km/h

87  Dario David Cioni  Fassa Bortolo01h 07' 33"+  00:09:01 =41,747  km/h

88  Giuseppe Guerini  Telekom01h 07' 33"+  00:09:01 =41,747  km/h

89  Dario Andriotto  Vini Caldirola-Saunier Duval01h 07' 35"+  00:09:03 =41,726  km/h

90  Christophe Brandt  Lotto-Domo01h 07' 39"+  00:09:07 =41,685  km/h

91  Davide Bramati  Quick Step-Davitamon01h 07' 39"+  00:09:07 =41,685  km/h

92  Christophe Edaleine  Jean Delatour01h 07' 41"+  00:09:09 =41,665  km/h

93  Stéphane Goubert  Jean Delatour01h 07' 43"+  00:09:11 =41,644  km/h

94  Koos Moerenhout  Lotto-Domo01h 07' 43"+  00:09:11 =41,644  km/h

95  Fred Rodriguez  Vini Caldirola-Saunier Duval01h 07' 44"+  00:09:12 =41,634  km/h

96  Damien Nazon  Brioches La Boulangere01h 07' 46"+  00:09:14 =41,613  km/h

97  Angel Luis Casero  Bianchi01h 07' 47"+  00:09:15 =41,603  km/h

98  René Andrle  O.N.C.E.-Eroski01h 07' 47"+  00:09:15 =41,603  km/h

99  Andrea Noè  Alessio01h 07' 48"+  00:09:16 =41,593  km/h

100  Stuart O'Grady  Credit Agricole01h 07' 49"+  00:09:17 =41,583  km/h

101  Guido Trentin  Cofidis Credit Par Telephone01h 07' 49"+  00:09:17 =41,583  km/h

102  Frédéric Finot  Jean Delatour01h 07' 50"+  00:09:18 =41,572  km/h

103  Jakob Piil  CSC01h 07' 53"+  00:09:21 =41,542  km/h

104  Jörg Ludewig  Saeco Macchine Da Caffe-Cannondale01h 07' 55"+  00:09:23 =41,521  km/h

105  Leonardo Bertagnolli  Saeco Macchine Da Caffe-Cannondale01h 08' 01"+  00:09:29 =41,460  km/h

106  Pierrick  Fédrigo  Credit Agricole01h 08' 01"+  00:09:29 =41,460  km/h

107  Christophe Mengin  fdjeux.com01h 08' 03"+  00:09:31 =41,440  km/h

108  Sylvain Chavanel  Brioches La Boulangere01h 08' 07"+  00:09:35 =41,400  km/h

109  Pavel Padrnos  US Postal-Berry Floor01h 08' 10"+  00:09:38 =41,369  km/h

110  Andrei Hauptman  Vini Caldirola-Saunier Duval01h 08' 10"+  00:09:38 =41,369  km/h

111  Marco Milesi  Vini Caldirola-Saunier Duval01h 08' 12"+  00:09:40 =41,349  km/h

112  Mario Aerts  Telekom01h 08' 16"+  00:09:44 =41,309  km/h

113  Franck Renier  Brioches La Boulangere01h 08' 17"+  00:09:45 =41,299  km/h

114  David Moncoutié  Cofidis Credit Par Telephone01h 08' 19"+  00:09:47 =41,278  km/h

115  Thomas  Voeckler  Brioches La Boulangere01h 08' 23"+  00:09:51 =41,238  km/h

116  Aitor Garmendia  Bianchi01h 08' 23"+  00:09:51 =41,238  km/h

117  Nicki Sørensen  CSC01h 08' 29"+  00:09:57 =41,178  km/h

118  Cédric Vasseur  Cofidis Credit Par Telephone01h 08' 29"+  00:09:57 =41,178  km/h

119  Gilberto Simoni  Saeco Macchine Da Caffe-Cannondale01h 08' 30"+  00:09:58 =41,168  km/h

120  Daniele Nardello  Telekom01h 08' 33"+  00:10:01 =41,138  km/h

121  Jérôme Pineau  Brioches La Boulangere01h 08' 33"+  00:10:01 =41,138  km/h

122  Xabier Zandio  ibanesto.com01h 08' 35"+  00:10:03 =41,118  km/h

123  Médéric Clain  Cofidis Credit Par Telephone01h 08' 36"+  00:10:04 =41,108  km/h

124  Mikel Artetxe  Euskaltel-Euskadi01h 08' 38"+  00:10:06 =41,088  km/h

125  Mikel Astarloza  AG2R-Decathlon01h 08' 39"+  00:10:07 =41,078  km/h

126  José Garcia Acosta  ibanesto.com01h 08' 42"+  00:10:10 =41,048  km/h

127  Danilo Di Luca  Saeco Macchine Da Caffe-Cannondale01h 08' 42"+  00:10:10 =41,048  km/h

128  Luca Paolini  Quick Step-Davitamon01h 08' 48"+  00:10:16 =40,988  km/h

129  Pablo Lastras  ibanesto.com01h 08' 51"+  00:10:19 =40,959  km/h

130  Bradley McGee  fdjeux.com01h 08' 52"+  00:10:20 =40,949  km/h

131  Robbie McEwen  Lotto-Domo01h 08' 53"+  00:10:21 =40,939  km/h

132  Matthias Kessler  Telekom01h 08' 55"+  00:10:23 =40,919  km/h

133  Salvatore Commesso  Saeco Macchine Da Caffe-Cannondale01h 09' 04"+  00:10:32 =40,830  km/h

134  Paolo Fornaciari  Saeco Macchine Da Caffe-Cannondale01h 09' 10"+  00:10:38 =40,771  km/h

135  Julian Usano  Kelme-Costa Blanca01h 09' 11"+  00:10:39 =40,761  km/h

136  Hans De Clercq  Lotto-Domo01h 09' 13"+  00:10:41 =40,742  km/h

137  Isidro Nozal  O.N.C.E.-Eroski01h 09' 15"+  00:10:43 =40,722  km/h

138  Nick Gates  Lotto-Domo01h 09' 19"+  00:10:47 =40,683  km/h

139  Bram de Groot  Rabobank01h 09' 20"+  00:10:48 =40,673  km/h

140  Patrice Halgand  Jean Delatour01h 09' 25"+  00:10:53 =40,624  km/h

141  Franco Pellizotti  Alessio01h 09' 35"+  00:11:03 =40,527  km/h

142  Baden Cooke  fdjeux.com01h 09' 36"+  00:11:04 =40,517  km/h

143  Leon van Bon  Lotto-Domo01h 09' 37"+  00:11:05 =40,508  km/h

144  Jean-Patrick Nazon  Jean Delatour01h 09' 38"+  00:11:06 =40,498  km/h

145  Ludovic Turpin  AG2R-Decathlon01h 09' 38"+  00:11:06 =40,498  km/h

146  Paolo Bossoni  Vini Caldirola-Saunier Duval01h 09' 38"+  00:11:06 =40,498  km/h

147  Sandy Casar  fdjeux.com01h 09' 39"+  00:11:07 =40,488  km/h

148  Markus Zberg  Gerolsteiner01h 09' 40"+  00:11:08 =40,478  km/h

149  Erik Zabel  Telekom01h 09' 42"+  00:11:10 =40,459  km/h

150  Samuel Dumoulin  Jean Delatour01h 09' 42"+  00:11:10 =40,459  km/h

151  Fabrizio Guidi  Bianchi01h 09' 47"+  00:11:15 =40,411  km/h

152  Marcos Serrano  O.N.C.E.-Eroski01h 09' 51"+  00:11:19 =40,372  km/h

153  Christophe Oriol  AG2R-Decathlon01h 09' 53"+  00:11:21 =40,353  km/h

154  Iñigo Cuesta  Cofidis Credit Par Telephone01h 09' 54"+  00:11:22 =40,343  km/h

155  Daniel Becke  Bianchi01h 10' 00"+  00:11:28 =40,286  km/h

156  Anthony Geslin  Brioches La Boulangere01h 10' 07"+  00:11:35 =40,219  km/h

157  Juan Antonio Flecha  ibanesto.com01h 10' 07"+  00:11:35 =40,219  km/h

158  Sébastien Hinault  Credit Agricole01h 10' 10"+  00:11:38 =40,190  km/h

159  Rolf Aldag  Telekom01h 10' 12"+  00:11:40 =40,171  km/h

160  David Munoz  Kelme-Costa Blanca01h 10' 39"+  00:12:07 =39,915  km/h

161  Alessandro Bertolini  Alessio01h 10' 49"+  00:12:17 =39,821  km/h

162  Alberto Lopez  Euskaltel-Euskadi01h 10' 50"+  00:12:18 =39,812  km/h

163  René Haselbacher  Gerolsteiner01h 11' 05"+  00:12:33 =39,672  km/h

164  Raffaele Ferrara  Alessio01h 11' 12"+  00:12:40 =39,607  km/h

165  Robert Hunter  Rabobank01h 11' 19"+  00:12:47 =39,542  km/h


Withdrawls: 2
 RiderTeamReason
173   David Etxebarria Euskaltel-EuskadiExceeded time limit
174   Unai Etxebarria Euskaltel-EuskadiExceeded time limit
Todays birthdays.

1879 • Henri Menez
1884 • Auguste Pierron
1890 • Lodewijk Budts
1899 • Fernand Braeckman
1905 • Alfred Hamerlinck
1919 • Briek Schotte
1920 • Pierre Baratin
1921 • Antonio Gelabert
1952 • Bruno Vicino
1973 • Giuseppe Di Grande
1973 • Guisvan Piovaccari
1992 • Alexey Lutsenko

 

Optimized for Chrome - Edge
and Opera browsers.